Weather History for Rhinelander, WI

Change the Weather History Date:

Saturday, December 28, 2013

  Actual Average Record
Temperature  
Mean Temperature 34 °F 14 °F  
Max Temperature 46 °F 23 °F 45 °F (1984)
Min Temperature 24 °F 5 °F -28 °F (1924)
Degree Days  
Heating Degree Days 30 51  
Month to date heating degree days 1529 1337  
Since 1 July heating degree days 3756 3471  
Cooling Degree Days 0 0  
Month to date cooling degree days 0 0  
Year to date cooling degree days 281 261  
Moisture  
Dew Point 26 °F    
Average Humidity 73    
Maximum Humidity 100    
Minimum Humidity 45    
Precipitation  
Precipitation T in 0.04 in 0.87 in (1959)
Month to date precipitation 1.65 1.32  
Year to date precipitation 36.86 31.28  
Snow  
Snow 0.00 in - 6.00 in (1966)
Month to date snowfall 22.7  
Since 1 July snowfall 32.5  
Snow Depth 11.00 in    
Sea Level Pressure  
Sea Level Pressure 29.79 in    
Wind  
Wind Speed 5 mph (North)    
Max Wind Speed 17 mph    
Max Gust Speed 25 mph    
Visibility 3 miles    
Events Fog , Rain    
T = Trace of Precipitation, MM = Missing Value Source: NWS Daily Summary

Daily Weather History Graph

Daily Weather History Graph

Search for Another Location

Airport:

Trip Planner

Search our weather history database for the weather conditions in past years. The results will help you decide how hot, cold, wet, or windy it might be!

Date:

Astronomy

Dec. 28, 2013 Rise Set
Actual Time 7:38 AM CST 4:21 PM CST
Civil Twilight 7:03 AM CST 4:55 PM CST
Nautical Twilight 6:26 AM CST 5:33 PM CST
Astronomical Twilight 5:50 AM CST 6:09 PM CST
Moon 3:07 AM CST (12/28) 1:18 PM CST (12/28)
Length of Visible Light 9h 51m
Length of Day
8h 43m
Waning Crescent, 19% of the Moon is Illuminated
Dec 28
Waning Crescent
Jan 1
New
Jan 7
First Quarter
Jan 15
Full
Jan 23
Last Quarter

Hourly Weather History & Observations

Time (CST) Temp. Windchill Dew Point Humidity Pressure Visibility Wind Dir Wind Speed Gust Speed Precip Events Conditions
12:53 AM 28.9 °F 21.9 °F 26.1 °F 89% 29.97 in 10.0 mi WNW 6.9 mph - N/A   Overcast
1:28 AM 28.9 °F - 26.1 °F 89% 29.90 in 10.0 mi Calm Calm - N/A   Overcast
1:53 AM 28.9 °F 22.8 °F 26.1 °F 89% 29.98 in 10.0 mi WNW 5.8 mph - N/A   Overcast
2:53 AM 28.0 °F 22.8 °F 26.1 °F 92% 29.97 in 10.0 mi WSW 4.6 mph - N/A   Overcast
3:53 AM 27.0 °F 19.5 °F 25.0 °F 92% 29.96 in 9.0 mi WSW 6.9 mph - N/A   Overcast
4:27 AM 26.1 °F 18.4 °F 25.0 °F 96% 29.89 in 6.0 mi WSW 6.9 mph - N/A   Overcast
4:53 AM 26.1 °F 18.4 °F 25.0 °F 96% 29.96 in 3.0 mi WSW 6.9 mph - N/A   Overcast
5:09 AM 26.1 °F 19.4 °F 25.0 °F 96% 29.89 in 1.8 mi SSW 5.8 mph - N/A   Overcast
5:33 AM 26.1 °F 18.4 °F 25.0 °F 96% 29.88 in 0.5 mi SSW 6.9 mph - N/A Fog Light Freezing Fog
5:53 AM 26.1 °F 20.5 °F 25.0 °F 96% 29.95 in 0.5 mi SSW 4.6 mph - N/A Fog Light Freezing Fog
6:53 AM 25.0 °F 19.3 °F 24.1 °F 96% 29.95 in 0.5 mi SSW 4.6 mph - N/A Fog Light Freezing Fog
7:53 AM 24.1 °F 18.2 °F 24.1 °F 100% 29.94 in 0.2 mi Variable 4.6 mph - N/A Fog Light Freezing Fog
8:53 AM 24.1 °F 17.0 °F 24.1 °F 100% 29.92 in 0.5 mi SSW 5.8 mph - N/A Fog Light Freezing Fog
9:23 AM 25.0 °F 16.3 °F 24.1 °F 96% 29.84 in 1.0 mi SSW 8.1 mph - N/A   Overcast
9:53 AM 25.0 °F 18.1 °F 25.0 °F 100% 29.92 in 1.5 mi WSW 5.8 mph - N/A   Overcast
10:15 AM 26.1 °F 17.6 °F 25.0 °F 96% 29.85 in 0.8 mi SW 8.1 mph - N/A   Overcast
10:53 AM 27.0 °F 21.6 °F 26.1 °F 96% 29.90 in 0.8 mi SSW 4.6 mph - N/A   Overcast
11:06 AM 27.0 °F 20.5 °F 27.0 °F 100% 29.81 in 1.0 mi South 5.8 mph - N/A   Overcast
11:41 AM 28.9 °F 23.9 °F 28.9 °F 100% 29.79 in 2.0 mi SW 4.6 mph - N/A   Overcast
11:53 AM 30.0 °F 24.1 °F 28.9 °F 96% 29.86 in 2.5 mi SSW 5.8 mph - N/A   Overcast
12:10 PM 30.0 °F 24.1 °F 28.9 °F 96% 29.78 in 3.0 mi SW 5.8 mph - N/A   Overcast
12:53 PM 30.9 °F - 30.0 °F 96% 29.81 in 4.0 mi Calm Calm - N/A   Overcast
1:19 PM 30.9 °F - 30.0 °F 96% 29.74 in 4.0 mi Calm Calm - N/A   Overcast
1:53 PM 32.0 °F 28.7 °F 30.0 °F 92% 29.79 in 5.0 mi NNW 3.5 mph - N/A   Scattered Clouds
2:53 PM 34.0 °F - 30.0 °F 85% 29.77 in 6.0 mi Calm Calm - N/A   Clear
3:53 PM 35.1 °F 32.2 °F 28.0 °F 76% 29.75 in 7.0 mi SE 3.5 mph - N/A   Clear
4:53 PM 37.9 °F 34.4 °F 28.9 °F 70% 29.76 in 7.0 mi NNE 4.6 mph - N/A   Clear
5:13 PM 32.0 °F - 26.1 °F 79% 29.71 in 1.8 mi Calm Calm - N/A   Haze
5:26 PM 33.1 °F - 28.0 °F 82% 29.72 in 3.0 mi Calm Calm - N/A   Haze
5:31 PM 30.0 °F - 26.1 °F 85% 29.72 in 1.8 mi Calm Calm - N/A   Clear
5:35 PM 30.0 °F - 24.1 °F 79% 29.72 in 0.5 mi Calm Calm - N/A   Haze
5:42 PM 28.0 °F - 23.0 °F 81% 29.72 in 0.2 mi Calm Calm - N/A   Haze
5:53 PM 37.0 °F 33.3 °F 26.1 °F 65% 29.77 in 1.2 mi ENE 4.6 mph - N/A   Haze
6:01 PM 33.1 °F - 27.0 °F 78% 29.72 in 1.0 mi Calm Calm - N/A   Haze
6:04 PM 33.1 °F 30.0 °F 28.0 °F 82% 29.72 in 2.5 mi NNE 3.5 mph - N/A   Haze
6:11 PM 30.9 °F 27.5 °F 26.1 °F 82% 29.72 in 3.0 mi NE 3.5 mph - N/A   Haze
6:16 PM 30.0 °F 26.5 °F 24.1 °F 79% 29.71 in 0.8 mi NE 3.5 mph - N/A   Haze
6:24 PM 34.0 °F - 26.1 °F 73% 29.71 in 1.0 mi Calm Calm - N/A   Haze
6:32 PM 34.0 °F 29.8 °F 25.0 °F 70% 29.71 in 0.5 mi NE 4.6 mph - N/A   Haze
6:46 PM 28.9 °F 25.2 °F 23.0 °F 78% 29.70 in 0.2 mi NE 3.5 mph - N/A   Haze
6:51 PM 28.4 °F 22.2 °F 23.0 °F 80% 29.70 in 0.5 mi NNE 5.8 mph - N/A   Haze
6:53 PM 33.1 °F 27.7 °F 25.0 °F 72% 29.76 in 0.5 mi NNE 5.8 mph - N/A   Haze
6:57 PM 34.0 °F 28.8 °F 26.1 °F 73% 29.70 in 1.5 mi North 5.8 mph - N/A   Haze
6:59 PM 33.1 °F 27.7 °F 27.0 °F 78% 29.70 in 3.0 mi North 5.8 mph - N/A   Haze
7:53 PM 34.0 °F - 26.1 °F 73% 29.76 in 2.5 mi Calm Calm - N/A   Haze
8:07 PM 41.0 °F 38.0 °F 26.1 °F 55% 29.70 in 5.0 mi NNE 4.6 mph - N/A   Haze
8:20 PM 45.0 °F 42.6 °F 27.0 °F 49% 29.70 in 5.0 mi NE 4.6 mph - N/A   Haze
8:53 PM 46.9 °F - 27.0 °F 46% 29.75 in 5.0 mi ENE 5.8 mph - N/A   Haze
9:35 PM - - - N/A% 29.70 in 2.5 mi ENE 5.8 mph - N/A   Overcast
9:45 PM - - - N/A% 29.71 in 1.5 mi ENE 3.5 mph - N/A   Overcast
9:53 PM - - - N/A% 29.71 in 1.8 mi NNE 3.5 mph - N/A   Overcast
10:16 PM - - - N/A% 29.72 in 2.5 mi NE 3.5 mph - N/A   Overcast
10:28 PM - - - N/A% 29.72 in 3.0 mi NE 6.9 mph - N/A   Overcast
10:35 PM - - - N/A% 29.72 in 2.0 mi NNE 6.9 mph - 0.00 in Rain Light Freezing Rain
10:42 PM - - - N/A% 29.72 in 1.8 mi NNE 9.2 mph - 0.00 in Rain Light Freezing Rain
10:53 PM - - - N/A% 29.72 in 2.0 mi North 8.1 mph - 0.00 in Rain Light Freezing Rain
11:41 PM - - - N/A% 29.75 in 3.0 mi North 11.5 mph 23.0 mph 0.00 in Rain Light Freezing Rain
11:53 PM - - - N/A% 29.75 in 4.0 mi North 13.8 mph 25.3 mph 0.00 in   Overcast